Location: Mat�lon
(46.2791°N, 7.1028°E)
Time: 17:18:12
(UTC+00:00)

Cosmos 1378 Rocket - Pass Details

Date: 18 September 2020
Orbit: 601 x 628 km, 82.5° (Epoch: 28 October)

Event Time Altitude Azimuth Distance (km) Brightness Sun altitude
Rises 17:57:25 0° 348° (NNW) 2,872 7.2 -4.4°
Reaches altitude 10° 17:59:39 10° 346° (NNW) 1,961 6.4 -4.8°
Maximum altitude 18:03:57 69° 264° (W) 647 3.9 -5.6°
Drops below altitude 10° 18:08:13 10° 181° (S) 1,939 6.0 -6.3°
Sets 18:10:25 0° 179° (S) 2,837 6.8 -6.7°
